Change the Weather History Date:

Saturday, March 8, 2014

  Actual Average Record
Temperature  
Mean Temperature 49 °F 51 °F  
Max Temperature 60 °F 66 °F 87 °F (1911)
Min Temperature 37 °F 35 °F 12 °F (1967)
Degree Days  
Heating Degree Days 16 14  
Month to date heating degree days 136 122  
Since 1 July heating degree days 2839 2829  
Cooling Degree Days 0 0  
Month to date cooling degree days 0 0  
Year to date cooling degree days 0 0  
Moisture  
Dew Point 29 °F    
Average Humidity 49    
Maximum Humidity 65    
Minimum Humidity 32    
Precipitation  
Precipitation T in 0.02 in 0.37 in (1938)
Month to date precipitation 0.05 0.13  
Year to date precipitation 0.07 0.93  
Sea Level Pressure  
Sea Level Pressure 30.12 in    
Wind  
Wind Speed 13 mph (NNE)    
Max Wind Speed 29 mph    
Max Gust Speed 35 mph    
Visibility 10 miles    
Events      
T = Trace of Precipitation, MM = Missing Value Source: NWS Daily Summary

Daily Weather History Graph

Daily Weather History Graph

Search for Another Location

Airport or City:

Trip Planner

Search our weather history database for the weather conditions in past years. The results will help you decide how hot, cold, wet, or windy it might be!

Date:

Astronomy

Mar. 08, 2014 Rise Set
Actual Time 6:17 AM MST 6:00 PM MST
Civil Twilight 5:52 AM MST 6:25 PM MST
Nautical Twilight 5:24 AM MST 6:54 PM MST
Astronomical Twilight 4:55 AM MST 7:23 PM MST
Moon 11:19 AM MST (3/8) 12:42 AM MST (3/8)
Length of Visible Light 12h 32m
Length of Day
11h 43m
First Quarter, 52% of the Moon is Illuminated
Mar 8
First Quarter
Mar 16
Full
Mar 23
Last Quarter
Mar 30
New
Apr 7
First Quarter

Hourly Weather History & Observations

Time (MST) Temp. Windchill Dew Point Humidity Pressure Visibility Wind Dir Wind Speed Gust Speed Precip Events Conditions
12:51 AM 57.9 °F - 33.1 °F 39% 29.77 in 10.0 mi NNE 15.0 mph - 0.00 in   Mostly Cloudy
1:36 AM 50.0 °F - 34.0 °F 54% 29.95 in 10.0 mi NNW 23.0 mph 31.1 mph N/A   Mostly Cloudy
1:51 AM 50.0 °F - 36.0 °F 59% 29.82 in 10.0 mi North 15.0 mph 24.2 mph N/A   Mostly Cloudy
2:29 AM 44.1 °F 34.2 °F 33.1 °F 65% 30.01 in 10.0 mi NNE 28.8 mph 34.5 mph N/A   Overcast
2:51 AM 42.1 °F 32.1 °F 30.9 °F 65% 29.91 in 10.0 mi NNE 25.3 mph 34.5 mph N/A   Overcast
3:03 AM 42.1 °F 32.6 °F 30.9 °F 65% 30.03 in 10.0 mi NNE 23.0 mph 28.8 mph N/A   Overcast
3:46 AM 41.0 °F 32.5 °F 30.2 °F 65% 30.07 in 10.0 mi North 17.3 mph 24.2 mph N/A   Mostly Cloudy
3:51 AM 41.0 °F 31.6 °F 30.0 °F 65% 29.96 in 10.0 mi North 20.7 mph - N/A   Mostly Cloudy
3:59 AM 41.0 °F 31.6 °F 30.0 °F 65% 30.08 in 10.0 mi North 20.7 mph 26.5 mph N/A   Overcast
4:17 AM 41.0 °F 31.1 °F 30.0 °F 65% 30.10 in 10.0 mi North 23.0 mph - N/A   Overcast
4:51 AM 41.0 °F 33.9 °F 30.0 °F 65% 30.02 in 10.0 mi North 12.7 mph - N/A   Overcast
5:51 AM 42.1 °F 35.2 °F 30.0 °F 62% 30.07 in 10.0 mi North 12.7 mph - N/A   Overcast
6:51 AM 42.1 °F 37.1 °F 30.0 °F 62% 30.10 in 10.0 mi North 8.1 mph - N/A   Mostly Cloudy
7:51 AM 45.0 °F 38.9 °F 30.0 °F 56% 30.12 in 10.0 mi NNE 12.7 mph - N/A   Mostly Cloudy
7:58 AM 45.0 °F 38.5 °F 30.0 °F 56% 30.22 in 10.0 mi NNE 13.8 mph - N/A   Mostly Cloudy
8:51 AM 46.0 °F 38.5 °F 28.9 °F 51% 30.15 in 10.0 mi NNE 19.6 mph - N/A   Overcast
9:51 AM 46.9 °F - 28.9 °F 50% 30.17 in 10.0 mi NNE 16.1 mph - N/A   Overcast
10:51 AM 51.1 °F - 28.0 °F 41% 30.15 in 10.0 mi NNE 16.1 mph 27.6 mph N/A   Mostly Cloudy
11:51 AM 51.1 °F - 28.0 °F 41% 30.15 in 10.0 mi NNE 12.7 mph 23.0 mph N/A   Mostly Cloudy
12:51 PM 53.1 °F - 28.0 °F 38% 30.13 in 10.0 mi NNE 16.1 mph 24.2 mph N/A   Overcast
1:51 PM 54.0 °F - 28.0 °F 37% 30.14 in 10.0 mi NE 18.4 mph - N/A   Overcast
2:51 PM 53.1 °F - 28.0 °F 38% 30.17 in 10.0 mi NNE 16.1 mph - N/A   Overcast
3:51 PM 53.1 °F - 27.0 °F 37% 30.19 in 10.0 mi NNE 13.8 mph 21.9 mph N/A   Overcast
4:51 PM 54.0 °F - 27.0 °F 35% 30.19 in 10.0 mi NE 11.5 mph - N/A   Overcast
5:51 PM 50.0 °F - 27.0 °F 41% 30.21 in 10.0 mi NE 8.1 mph - N/A   Partly Cloudy
6:51 PM 46.0 °F 43.1 °F 26.1 °F 46% 30.26 in 10.0 mi NE 5.8 mph - N/A   Partly Cloudy
7:51 PM 44.1 °F 40.8 °F 25.0 °F 47% 30.27 in 10.0 mi NE 5.8 mph - N/A   Clear
8:51 PM 43.0 °F 39.5 °F 25.0 °F 49% 30.30 in 10.0 mi NNE 5.8 mph - N/A   Clear
9:51 PM 42.1 °F 39.2 °F 25.0 °F 51% 30.32 in 10.0 mi NNW 4.6 mph - N/A   Clear
10:51 PM 39.9 °F 36.7 °F 24.1 °F 53% 30.31 in 10.0 mi WNW 4.6 mph - N/A   Clear
11:51 PM 37.9 °F 34.4 °F 23.0 °F 55% 30.32 in 10.0 mi WNW 4.6 mph - N/A   Clear